Weather in Kshen'

Russia / Kursk Oblast     51°43′52″N   37°25′15″E
temp.,
°C
wind,
m/s
gust,
m/s
humid.,
%
clouds,
%
prec.,
mm/h
press.,
hPa
HPBL,
m
8 march, mon
mon800:00−1w81495100 0.4 1005727
03:00−3w379199 2.4 1005252
06:00−4wsw4684100 0.6 1004108
09:00−3w51185100 0.7 1005671
12:00−2wnw61084100 0.0 1006915
15:00−2wnw598375 0.0 10061070
18:00−5w34880 0.0 100847
21:00−7w339119 0.0 100946
9 march, tue
tue900:00−8w239487 0.0 101030
03:00−10wnw239675 0.1 101131
06:00−9nnw3695100 0.7 1012220
09:00−11nnw3693100 0.7 1014226
12:00−9nnw469278 0.0 1015420
15:00−8nnw568789 0.1 1018698
18:00−12nw4793100 0.0 1019172
21:00−15nw349364 0.0 102155
10 march, wed
wed1000:00−15wnw349437 0.0 102361
03:00−17nw349631 0.0 102462
06:00−19nw349717 0.0 102650
09:00−17nnw23959 0.0 1027126
12:00−14nnw248711 0.0 1027317
15:00−12nnw238552 0.0 1027477
18:00−14ne349698 0.1 1027116
21:00−19ne359292 0.2 1029105
11 march, thu
thu1100:00−22ne34920 0.0 103150
03:00−23ne33900 0.0 103240
06:00−23ne23880 0.0 103323
09:00−21ne22868 0.0 103469
12:00−16ene12740 0.0 1034218
15:00−14ne11740 0.0 1033219
18:00−17ne12850 0.0 103320
21:00−19ese22800 0.0 103420
12 march, fri
fri1200:00−18se33770 0.0 103420
03:00−17sse34840 0.0 103334
06:00−16sse45850 0.0 103277
09:00−12s6117933 0.0 1031330
12:00−8s71270100 0.0 1029618
15:00−6s71267100 0.0 1027647
18:00−7s7166496 0.0 1025574
21:00−6s8176398 0.0 1024743